User: anonymous   Login
Location: Newark
(39.6867°N, 100.6772°W)
Time: 14:06:56
(UTC+00:00)
Language:

S-56A Canister/Altair - Orbit

View from above orbital plane
View from above orbital plane
View from above satellite
View from above satellite

Ground track
Ground track

The orbit data is extracted from the following two-line orbital elements,

1    82U 61004B   19290.71697766  .00000035  00000-0  69809-4 0  9995
2    82  38.8608  20.8852 1174295 347.1674  10.1385 12.26053205777893
Epoch (UTC): 17 October 2019 17:12:26
Eccentricity: 0.1174295
inclination: 38.8608°
perigee height: 633 km
apogee height: 2499 km
right ascension of ascending node: 20.8852°
argument of perigee: 347.1674°
revolutions per day: 12.26053205
mean anomaly at epoch: 10.1385°
orbit number at epoch: 77789

The dashed part of the orbit path shows where the satellite is in the earth's shadow,  

DLR